Time,TemperatureF,DewpointF,PressureIn,WindDirection,WindDirectionDegrees,WindSpeedMPH,WindSpeedGustMPH,Humidity,HourlyPrecipIn,Conditions,Clouds,dailyrainin,SoftwareType,DateUTC
2013-10-14 00:00:00,41.7,36.6,30.55,SSW,203,0.0,0.0,82,0.00,,,0.00,WUHU216HW,2013-10-14 04:00:00,
2013-10-14 00:01:00,41.7,36.6,30.55,SSW,203,0.0,0.0,82,0.00,,,0.00,WUHU216HW,2013-10-14 04:01:00,
2013-10-14 00:02:00,41.7,36.5,30.55,SSW,203,0.0,0.0,82,0.00,,,0.00,WUHU216HW,2013-10-14 04:02:00,
2013-10-14 00:03:00,41.5,36.5,30.55,SSW,203,0.0,0.0,82,0.00,,,0.00,WUHU216HW,2013-10-14 04:03:00,
2013-10-14 00:08:00,41.5,36.3,30.55,SSW,203,0.0,0.0,82,0.00,,,0.00,WUHU216HW,2013-10-14 04:08:00,
2013-10-14 00:13:00,41.5,36.3,30.55,SSW,203,0.0,0.0,82,0.00,,,0.00,WUHU216HW,2013-10-14 04:13:00,
2013-10-14 00:18:00,41.3,36.2,30.54,SSW,203,0.0,0.0,82,0.00,,,0.00,WUHU216HW,2013-10-14 04:18:00,
2013-10-14 00:23:00,41.1,36.0,30.54,SSW,203,0.0,0.0,82,0.00,,,0.00,WUHU216HW,2013-10-14 04:23:00,
2013-10-14 00:28:00,41.3,36.2,30.54,SSW,203,0.0,0.0,82,0.00,,,0.00,WUHU216HW,2013-10-14 04:28:00,
2013-10-14 00:33:00,41.3,36.2,30.54,SSW,203,0.0,0.0,82,0.00,,,0.00,WUHU216HW,2013-10-14 04:33:00,
2013-10-14 00:38:00,41.1,36.0,30.54,SSW,203,0.0,0.0,82,0.00,,,0.00,WUHU216HW,2013-10-14 04:38:00,
2013-10-14 00:44:00,41.1,36.0,30.54,SSW,203,0.0,0.0,82,0.00,,,0.00,WUHU216HW,2013-10-14 04:44:00,
2013-10-14 00:49:00,40.8,35.6,30.53,SSW,203,0.0,0.0,82,0.00,,,0.00,WUHU216HW,2013-10-14 04:49:00,
2013-10-14 00:54:00,40.8,35.6,30.53,SSW,203,0.0,0.0,82,0.00,,,0.00,WUHU216HW,2013-10-14 04:54:00,
2013-10-14 00:59:00,40.8,35.9,30.54,SSW,203,0.0,0.0,83,0.00,,,0.00,WUHU216HW,2013-10-14 04:59:00,
2013-10-14 01:04:00,41.0,36.1,30.54,SSW,203,0.0,0.0,83,0.00,,,0.00,WUHU216HW,2013-10-14 05:04:00,
2013-10-14 01:09:00,41.0,36.1,30.54,SSW,203,0.0,0.0,83,0.00,,,0.00,WUHU216HW,2013-10-14 05:09:00,
2013-10-14 01:14:00,40.8,35.9,30.54,SSW,203,0.0,0.0,83,0.00,,,0.00,WUHU216HW,2013-10-14 05:14:00,
2013-10-14 01:19:00,40.8,35.9,30.54,SSW,203,0.0,0.0,83,0.00,,,0.00,WUHU216HW,2013-10-14 05:19:00,
2013-10-14 01:24:00,40.8,35.9,30.54,SSW,203,0.0,0.0,83,0.00,,,0.00,WUHU216HW,2013-10-14 05:24:00,
2013-10-14 01:29:00,40.6,35.8,30.54,SSW,203,0.0,0.0,83,0.00,,,0.00,WUHU216HW,2013-10-14 05:29:00,
2013-10-14 01:34:00,40.6,35.8,30.54,SSW,203,0.0,0.0,83,0.00,,,0.00,WUHU216HW,2013-10-14 05:34:00,
2013-10-14 01:40:00,40.6,35.8,30.54,SSW,203,0.0,0.0,83,0.00,,,0.00,WUHU216HW,2013-10-14 05:40:00,
2013-10-14 01:45:00,40.8,35.9,30.54,SSW,203,0.0,0.0,83,0.00,,,0.00,WUHU216HW,2013-10-14 05:45:00,
2013-10-14 01:50:00,40.8,35.9,30.54,SSW,203,0.0,0.0,83,0.00,,,0.00,WUHU216HW,2013-10-14 05:50:00,
2013-10-14 01:55:00,40.8,35.9,30.53,SSW,203,0.0,0.0,83,0.00,,,0.00,WUHU216HW,2013-10-14 05:55:00,
2013-10-14 02:00:00,40.8,35.9,30.53,SSW,203,0.0,0.0,83,0.00,,,0.00,WUHU216HW,2013-10-14 06:00:00,
2013-10-14 02:05:00,40.8,35.9,30.53,SSW,203,0.0,0.0,83,0.00,,,0.00,WUHU216HW,2013-10-14 06:05:00,
2013-10-14 02:10:00,41.0,36.1,30.53,SSW,203,0.0,0.0,83,0.00,,,0.00,WUHU216HW,2013-10-14 06:10:00,
2013-10-14 02:15:00,41.1,36.3,30.53,SSW,203,0.0,0.0,83,0.00,,,0.00,WUHU216HW,2013-10-14 06:15:00,
2013-10-14 02:20:00,41.1,36.3,30.53,SSW,203,0.0,0.0,83,0.00,,,0.00,WUHU216HW,2013-10-14 06:20:00,
2013-10-14 02:25:00,41.1,36.5,30.53,SSW,203,0.0,0.0,83,0.00,,,0.00,WUHU216HW,2013-10-14 06:25:00,
2013-10-14 02:31:00,41.3,36.5,30.52,SSW,203,0.0,0.0,83,0.00,,,0.00,WUHU216HW,2013-10-14 06:31:00,
2013-10-14 02:36:00,41.3,36.8,30.52,SSW,203,0.0,0.0,84,0.00,,,0.00,WUHU216HW,2013-10-14 06:36:00,
2013-10-14 02:41:00,41.3,36.8,30.52,SSW,203,0.0,0.0,84,0.00,,,0.00,WUHU216HW,2013-10-14 06:41:00,
2013-10-14 02:46:00,41.5,37.0,30.52,SSW,203,0.0,0.0,84,0.00,,,0.00,WUHU216HW,2013-10-14 06:46:00,
2013-10-14 02:51:00,41.5,37.0,30.52,SSW,203,0.0,0.0,84,0.00,,,0.00,WUHU216HW,2013-10-14 06:51:00,
2013-10-14 02:56:00,41.7,37.1,30.51,SSW,203,0.0,0.0,84,0.00,,,0.00,WUHU216HW,2013-10-14 06:56:00,
2013-10-14 03:01:00,41.7,37.1,30.52,SSW,203,0.0,0.0,84,0.00,,,0.00,WUHU216HW,2013-10-14 07:01:00,
2013-10-14 03:06:00,41.7,37.1,30.52,SSW,203,0.0,0.0,84,0.00,,,0.00,WUHU216HW,2013-10-14 07:06:00,
2013-10-14 03:11:00,41.9,37.3,30.51,SSW,203,0.0,0.0,84,0.00,,,0.00,WUHU216HW,2013-10-14 07:11:00,
2013-10-14 03:16:00,41.9,37.3,30.51,SSW,203,0.0,0.0,84,0.00,,,0.00,WUHU216HW,2013-10-14 07:16:00,
2013-10-14 03:21:00,42.0,37.5,30.51,SSW,203,0.0,0.0,84,0.00,,,0.00,WUHU216HW,2013-10-14 07:21:00,
2013-10-14 03:26:00,42.0,37.5,30.51,SSW,203,0.0,0.0,84,0.00,,,0.00,WUHU216HW,2013-10-14 07:26:00,
2013-10-14 03:32:00,42.0,37.5,30.51,SSW,203,0.0,0.0,84,0.00,,,0.00,WUHU216HW,2013-10-14 07:32:00,
2013-10-14 03:37:00,42.4,37.9,30.51,SSW,203,0.0,0.0,84,0.00,,,0.00,WUHU216HW,2013-10-14 07:37:00,
2013-10-14 03:42:00,42.4,37.9,30.51,SSW,203,0.0,0.0,84,0.00,,,0.00,WUHU216HW,2013-10-14 07:42:00,
2013-10-14 03:47:00,42.4,37.9,30.50,SSW,203,0.0,0.0,84,0.00,,,0.00,WUHU216HW,2013-10-14 07:47:00,
2013-10-14 03:52:00,42.4,37.9,30.51,SSW,203,0.0,0.0,84,0.00,,,0.00,WUHU216HW,2013-10-14 07:52:00,
2013-10-14 03:57:00,42.4,37.9,30.50,SSW,203,0.0,0.0,84,0.00,,,0.00,WUHU216HW,2013-10-14 07:57:00,
2013-10-14 04:02:00,42.4,37.9,30.50,SSW,203,0.0,0.0,84,0.00,,,0.00,WUHU216HW,2013-10-14 08:02:00,
2013-10-14 04:07:00,42.4,37.9,30.50,SSW,203,0.0,0.0,84,0.00,,,0.00,WUHU216HW,2013-10-14 08:07:00,
2013-10-14 04:12:00,42.4,37.9,30.51,SSW,203,0.0,0.0,84,0.00,,,0.00,WUHU216HW,2013-10-14 08:12:00,
2013-10-14 04:17:00,42.6,38.3,30.50,SSW,203,0.0,0.0,85,0.00,,,0.00,WUHU216HW,2013-10-14 08:17:00,
2013-10-14 04:23:00,42.6,38.3,30.50,SSW,203,0.0,0.0,85,0.00,,,0.00,WUHU216HW,2013-10-14 08:23:00,
2013-10-14 04:28:00,42.6,38.3,30.51,SSW,203,0.0,0.0,85,0.00,,,0.00,WUHU216HW,2013-10-14 08:28:00,
2013-10-14 04:33:00,42.6,38.3,30.51,SSW,203,0.0,0.0,85,0.00,,,0.00,WUHU216HW,2013-10-14 08:33:00,
2013-10-14 04:38:00,42.6,38.3,30.51,SSW,203,0.0,0.0,85,0.00,,,0.00,WUHU216HW,2013-10-14 08:38:00,
2013-10-14 04:43:00,42.6,38.3,30.51,SSW,203,0.0,0.0,85,0.00,,,0.00,WUHU216HW,2013-10-14 08:43:00,
2013-10-14 04:48:00,42.9,38.7,30.51,SSW,203,0.0,0.0,85,0.00,,,0.00,WUHU216HW,2013-10-14 08:48:00,
2013-10-14 04:53:00,42.9,38.7,30.51,SSW,203,0.0,0.0,85,0.00,,,0.00,WUHU216HW,2013-10-14 08:53:00,
2013-10-14 04:58:00,42.9,38.7,30.51,SSW,203,0.0,0.0,85,0.00,,,0.00,WUHU216HW,2013-10-14 08:58:00,
2013-10-14 05:03:00,43.1,38.9,30.51,SSW,203,0.0,0.0,85,0.00,,,0.00,WUHU216HW,2013-10-14 09:03:00,
2013-10-14 05:08:00,43.1,38.9,30.51,SSW,203,0.0,0.0,85,0.00,,,0.00,WUHU216HW,2013-10-14 09:08:00,
2013-10-14 05:13:00,43.3,39.1,30.51,SSW,203,0.0,0.0,85,0.00,,,0.00,WUHU216HW,2013-10-14 09:13:00,
2013-10-14 05:18:00,43.5,39.1,30.51,SSW,203,0.0,0.0,85,0.00,,,0.00,WUHU216HW,2013-10-14 09:18:00,
2013-10-14 05:23:00,43.5,39.2,30.50,SSW,203,0.0,0.0,85,0.00,,,0.00,WUHU216HW,2013-10-14 09:23:00,
2013-10-14 05:29:00,43.5,39.2,30.51,SSW,203,0.0,0.0,85,0.00,,,0.00,WUHU216HW,2013-10-14 09:29:00,
2013-10-14 05:34:00,43.5,39.2,30.50,SSW,203,0.0,0.0,85,0.00,,,0.00,WUHU216HW,2013-10-14 09:34:00,
2013-10-14 05:39:00,43.7,39.4,30.50,SSW,203,0.0,0.0,85,0.00,,,0.00,WUHU216HW,2013-10-14 09:39:00,
2013-10-14 05:44:00,43.8,39.6,30.50,SSW,203,0.0,0.0,85,0.00,,,0.00,WUHU216HW,2013-10-14 09:44:00,
2013-10-14 05:49:00,44.0,39.8,30.50,SSW,203,0.0,0.0,85,0.00,,,0.00,WUHU216HW,2013-10-14 09:49:00,
2013-10-14 05:54:00,44.2,40.3,30.50,SSW,203,0.0,0.0,86,0.00,,,0.00,WUHU216HW,2013-10-14 09:54:00,
2013-10-14 05:59:00,44.2,40.0,30.50,SSW,203,0.0,0.0,85,0.00,,,0.00,WUHU216HW,2013-10-14 09:59:00,
2013-10-14 06:04:00,44.2,40.0,30.50,SSW,203,0.0,0.0,85,0.00,,,0.00,WUHU216HW,2013-10-14 10:04:00,
2013-10-14 06:09:00,44.2,40.0,30.50,SSW,203,0.0,0.0,85,0.00,,,0.00,WUHU216HW,2013-10-14 10:09:00,
2013-10-14 06:14:00,44.2,40.0,30.50,SSW,203,0.0,0.0,85,0.00,,,0.00,WUHU216HW,2013-10-14 10:14:00,
2013-10-14 06:20:00,44.2,40.0,30.50,SSW,203,0.0,0.0,85,0.00,,,0.00,WUHU216HW,2013-10-14 10:20:00,
2013-10-14 06:25:00,44.4,40.1,30.50,SSW,203,0.0,0.0,85,0.00,,,0.00,WUHU216HW,2013-10-14 10:25:00,
2013-10-14 06:30:00,44.4,40.1,30.49,SSW,203,0.0,0.0,85,0.00,,,0.00,WUHU216HW,2013-10-14 10:30:00,
2013-10-14 06:35:00,44.4,40.1,30.49,SSW,203,0.0,0.0,85,0.00,,,0.00,WUHU216HW,2013-10-14 10:35:00,
2013-10-14 06:40:00,44.4,40.1,30.49,SSW,203,0.0,0.0,85,0.00,,,0.00,WUHU216HW,2013-10-14 10:40:00,
2013-10-14 06:45:00,44.4,40.1,30.50,SSW,203,0.0,0.0,85,0.00,,,0.00,WUHU216HW,2013-10-14 10:45:00,
2013-10-14 06:50:00,44.2,40.0,30.49,SSW,203,0.0,0.0,85,0.00,,,0.00,WUHU216HW,2013-10-14 10:50:00,
2013-10-14 06:55:00,44.2,40.0,30.49,SSW,203,0.0,0.0,85,0.00,,,0.00,WUHU216HW,2013-10-14 10:55:00,
2013-10-14 07:00:00,44.2,40.0,30.49,SSW,203,0.0,0.0,85,0.00,,,0.00,WUHU216HW,2013-10-14 11:00:00,
2013-10-14 07:05:00,44.2,40.0,30.49,SSW,203,0.0,0.0,85,0.00,,,0.00,WUHU216HW,2013-10-14 11:05:00,
2013-10-14 07:11:00,44.0,39.8,30.49,SSW,203,0.0,0.0,85,0.00,,,0.00,WUHU216HW,2013-10-14 11:11:00,
2013-10-14 07:16:00,43.8,39.6,30.49,SSW,203,0.0,0.0,85,0.00,,,0.00,WUHU216HW,2013-10-14 11:16:00,
2013-10-14 07:21:00,43.8,39.6,30.49,SSW,203,0.0,0.0,85,0.00,,,0.00,WUHU216HW,2013-10-14 11:21:00,
2013-10-14 07:26:00,43.8,39.6,30.49,SSW,203,0.0,0.0,85,0.00,,,0.00,WUHU216HW,2013-10-14 11:26:00,
2013-10-14 07:31:00,43.7,39.4,30.49,SSW,203,0.0,0.0,85,0.00,,,0.00,WUHU216HW,2013-10-14 11:31:00,
2013-10-14 07:36:00,43.5,39.2,30.49,SSW,203,0.0,0.0,85,0.00,,,0.00,WUHU216HW,2013-10-14 11:36:00,
2013-10-14 07:41:00,43.5,39.2,30.50,SSW,203,0.0,0.0,85,0.00,,,0.00,WUHU216HW,2013-10-14 11:41:00,
2013-10-14 07:46:00,43.5,39.5,30.50,SSW,203,0.0,0.0,86,0.00,,,0.00,WUHU216HW,2013-10-14 11:46:00,
2013-10-14 07:51:00,43.7,39.7,30.50,SSW,203,0.0,0.0,86,0.00,,,0.00,WUHU216HW,2013-10-14 11:51:00,
2013-10-14 07:56:00,43.8,39.9,30.50,SSW,203,0.0,0.0,86,0.00,,,0.00,WUHU216HW,2013-10-14 11:56:00,
2013-10-14 08:01:00,43.8,40.1,30.51,South,180,0.0,0.0,86,0.00,,,0.00,WUHU216HW,2013-10-14 12:01:00,
2013-10-14 08:07:00,44.2,40.3,30.51,South,180,0.0,0.0,86,0.00,,,0.00,WUHU216HW,2013-10-14 12:07:00,
2013-10-14 08:12:00,44.4,40.4,30.51,South,180,0.0,0.0,86,0.00,,,0.00,WUHU216HW,2013-10-14 12:12:00,
2013-10-14 08:17:00,44.6,40.6,30.51,SSE,158,0.0,0.0,86,0.00,,,0.00,WUHU216HW,2013-10-14 12:17:00,
2013-10-14 08:22:00,44.9,41.0,30.51,SE,135,0.0,0.0,86,0.00,,,0.00,WUHU216HW,2013-10-14 12:22:00,
2013-10-14 08:27:00,45.1,41.5,30.51,SE,135,0.0,1.0,87,0.00,,,0.00,WUHU216HW,2013-10-14 12:27:00,
2013-10-14 08:32:00,45.5,41.8,30.51,SSE,158,0.0,1.0,87,0.00,,,0.00,WUHU216HW,2013-10-14 12:32:00,
2013-10-14 08:37:00,45.6,42.0,30.51,SSE,158,0.0,7.0,87,0.00,,,0.00,WUHU216HW,2013-10-14 12:37:00,
2013-10-14 08:42:00,46.0,42.4,30.51,SSE,158,0.0,7.0,87,0.00,,,0.00,WUHU216HW,2013-10-14 12:42:00,
2013-10-14 08:47:00,46.2,42.6,30.51,SSE,158,0.0,0.0,87,0.00,,,0.00,WUHU216HW,2013-10-14 12:47:00,
2013-10-14 08:52:00,46.7,42.9,30.51,SE,135,0.0,0.0,87,0.00,,,0.00,WUHU216HW,2013-10-14 12:52:00,
2013-10-14 08:58:00,47.1,43.4,30.51,SE,135,0.0,0.0,87,0.00,,,0.00,WUHU216HW,2013-10-14 12:58:00,
2013-10-14 09:03:00,47.3,43.3,30.51,ESE,113,1.0,1.0,86,0.00,,,0.00,WUHU216HW,2013-10-14 13:03:00,
2013-10-14 09:08:00,47.4,43.5,30.50,South,180,5.0,5.0,86,0.00,,,0.00,WUHU216HW,2013-10-14 13:08:00,
2013-10-14 09:13:00,47.8,44.1,30.51,ESE,113,2.0,5.0,87,0.00,,,0.00,WUHU216HW,2013-10-14 13:13:00,
2013-10-14 09:18:00,48.0,44.0,30.51,SE,135,0.0,2.0,86,0.00,,,0.00,WUHU216HW,2013-10-14 13:18:00,
2013-10-14 09:23:00,48.2,44.2,30.50,ESE,113,2.0,2.0,86,0.00,,,0.00,WUHU216HW,2013-10-14 13:23:00,
2013-10-14 09:28:00,48.9,44.8,30.50,NE,45,0.0,3.0,86,0.00,,,0.00,WUHU216HW,2013-10-14 13:28:00,
2013-10-14 09:33:00,49.2,45.2,30.50,SE,135,2.0,6.0,86,0.00,,,0.00,WUHU216HW,2013-10-14 13:33:00,
2013-10-14 09:38:00,50.1,46.0,30.51,SE,135,9.0,9.0,86,0.00,,,0.00,WUHU216HW,2013-10-14 13:38:00,
2013-10-14 09:44:00,50.7,46.3,30.50,SE,135,0.0,9.0,85,0.00,,,0.00,WUHU216HW,2013-10-14 13:44:00,
2013-10-14 09:49:00,51.6,46.9,30.50,SE,135,0.0,8.0,84,0.00,,,0.00,WUHU216HW,2013-10-14 13:49:00,
2013-10-14 09:54:00,52.3,47.1,30.50,East,90,0.0,8.0,83,0.00,,,0.00,WUHU216HW,2013-10-14 13:54:00,
2013-10-14 09:59:00,52.8,47.8,30.50,ESE,113,0.0,6.0,83,0.00,,,0.00,WUHU216HW,2013-10-14 13:59:00,
2013-10-14 10:04:00,53.7,48.4,30.50,SE,135,7.0,7.0,82,0.00,,,0.00,WUHU216HW,2013-10-14 14:04:00,
2013-10-14 10:09:00,54.3,48.6,30.50,SE,135,4.0,7.0,81,0.00,,,0.00,WUHU216HW,2013-10-14 14:09:00,
2013-10-14 10:14:00,54.8,48.4,30.50,ESE,113,0.0,4.0,79,0.00,,,0.00,WUHU216HW,2013-10-14 14:14:00,
2013-10-14 10:19:00,55.2,48.4,30.50,SE,135,2.0,4.0,78,0.00,,,0.00,WUHU216HW,2013-10-14 14:19:00,
2013-10-14 10:24:00,55.7,48.9,30.49,SE,135,4.0,4.0,78,0.00,,,0.00,WUHU216HW,2013-10-14 14:24:00,
2013-10-14 10:29:00,56.3,49.1,30.49,ESE,113,5.0,5.0,77,0.00,,,0.00,WUHU216HW,2013-10-14 14:29:00,
2013-10-14 10:34:00,56.4,48.5,30.49,SE,135,0.0,5.0,75,0.00,,,0.00,WUHU216HW,2013-10-14 14:34:00,
2013-10-14 10:40:00,57.0,49.1,30.49,North,0,0.0,4.0,75,0.00,,,0.00,WUHU216HW,2013-10-14 14:40:00,
2013-10-14 10:45:00,57.0,48.7,30.49,SE,135,5.0,5.0,74,0.00,,,0.00,WUHU216HW,2013-10-14 14:45:00,
2013-10-14 10:50:00,57.3,48.7,30.49,SSE,158,0.0,5.0,73,0.00,,,0.00,WUHU216HW,2013-10-14 14:50:00,
2013-10-14 10:55:00,57.3,48.7,30.48,SE,135,4.0,7.0,73,0.00,,,0.00,WUHU216HW,2013-10-14 14:55:00,
2013-10-14 11:00:00,57.7,48.7,30.48,SE,135,2.0,7.0,72,0.00,,,0.00,WUHU216HW,2013-10-14 15:00:00,
2013-10-14 11:05:00,58.1,49.1,30.48,SE,135,0.0,2.0,72,0.00,,,0.00,WUHU216HW,2013-10-14 15:05:00,
2013-10-14 11:10:00,58.6,49.2,30.48,East,90,0.0,6.0,71,0.00,,,0.00,WUHU216HW,2013-10-14 15:10:00,
2013-10-14 11:15:00,58.8,49.1,30.48,SE,135,0.0,6.0,70,0.00,,,0.00,WUHU216HW,2013-10-14 15:15:00,
2013-10-14 11:20:00,60.0,50.1,30.48,SSE,158,0.0,6.0,70,0.00,,,0.00,WUHU216HW,2013-10-14 15:20:00,
2013-10-14 11:26:00,60.4,50.3,30.47,East,90,5.0,5.0,69,0.00,,,0.00,WUHU216HW,2013-10-14 15:26:00,
2013-10-14 11:31:00,60.4,50.3,30.47,SE,135,3.0,6.0,69,0.00,,,0.00,WUHU216HW,2013-10-14 15:31:00,
2013-10-14 11:36:00,60.6,50.0,30.47,ESE,113,6.0,8.0,68,0.00,,,0.00,WUHU216HW,2013-10-14 15:36:00,
2013-10-14 11:41:00,61.1,50.4,30.47,SE,135,5.0,8.0,68,0.00,,,0.00,WUHU216HW,2013-10-14 15:41:00,
2013-10-14 11:46:00,61.5,50.9,30.47,SE,135,0.0,5.0,68,0.00,,,0.00,WUHU216HW,2013-10-14 15:46:00,
2013-10-14 11:51:00,61.8,50.8,30.46,ESE,113,8.0,8.0,67,0.00,,,0.00,WUHU216HW,2013-10-14 15:51:00,
2013-10-14 11:56:00,62.2,51.1,30.46,SE,135,0.0,8.0,67,0.00,,,0.00,WUHU216HW,2013-10-14 15:56:00,
2013-10-14 12:01:00,62.7,51.2,30.46,SSW,203,4.0,4.0,66,0.00,,,0.00,WUHU216HW,2013-10-14 16:01:00,
2013-10-14 12:06:00,63.3,51.7,30.46,ESE,113,5.0,5.0,66,0.00,,,0.00,WUHU216HW,2013-10-14 16:06:00,
2013-10-14 12:12:00,63.6,51.6,30.46,SSW,203,5.0,5.0,65,0.00,,,0.00,WUHU216HW,2013-10-14 16:12:00,
2013-10-14 12:17:00,64.2,52.1,30.46,ESE,113,6.0,6.0,65,0.00,,,0.00,WUHU216HW,2013-10-14 16:17:00,
2013-10-14 12:22:00,64.7,52.2,30.45,ESE,113,4.0,6.0,64,0.00,,,0.00,WUHU216HW,2013-10-14 16:22:00,
2013-10-14 12:27:00,64.9,51.9,30.45,SSE,158,5.0,5.0,63,0.00,,,0.00,WUHU216HW,2013-10-14 16:27:00,
2013-10-14 12:32:00,64.7,51.3,30.45,SE,135,0.0,7.0,62,0.00,,,0.00,WUHU216HW,2013-10-14 16:32:00,
2013-10-14 12:37:00,64.7,51.3,30.45,SSE,158,2.0,7.0,62,0.00,,,0.00,WUHU216HW,2013-10-14 16:37:00,
2013-10-14 12:42:00,64.7,51.3,30.45,NW,315,0.0,2.0,62,0.00,,,0.00,WUHU216HW,2013-10-14 16:42:00,
2013-10-14 12:47:00,64.5,50.3,30.45,SSE,158,0.0,2.0,60,0.00,,,0.00,WUHU216HW,2013-10-14 16:47:00,
2013-10-14 12:52:00,64.5,51.2,30.44,WSW,248,0.0,6.0,62,0.00,,,0.00,WUHU216HW,2013-10-14 16:52:00,
2013-10-14 12:57:00,65.4,51.8,30.44,SE,135,2.0,4.0,61,0.00,,,0.00,WUHU216HW,2013-10-14 16:57:00,
2013-10-14 13:03:00,66.3,52.5,30.44,SSE,158,0.0,4.0,61,0.00,,,0.00,WUHU216HW,2013-10-14 17:03:00,
2013-10-14 13:08:00,66.5,52.3,30.43,SE,135,0.0,4.0,60,0.00,,,0.00,WUHU216HW,2013-10-14 17:08:00,
2013-10-14 13:13:00,66.7,52.4,30.43,SSW,203,0.0,3.0,60,0.00,,,0.00,WUHU216HW,2013-10-14 17:13:00,
2013-10-14 13:18:00,66.5,51.8,30.43,SSE,158,0.0,3.0,59,0.00,,,0.00,WUHU216HW,2013-10-14 17:18:00,
2013-10-14 13:23:00,66.5,52.3,30.43,SE,135,0.0,3.0,60,0.00,,,0.00,WUHU216HW,2013-10-14 17:23:00,
2013-10-14 13:28:00,66.9,52.6,30.43,SSE,158,0.0,3.0,60,0.00,,,0.00,WUHU216HW,2013-10-14 17:28:00,
2013-10-14 13:33:00,67.1,51.8,30.43,East,90,0.0,0.0,58,0.00,,,0.00,WUHU216HW,2013-10-14 17:33:00,
2013-10-14 13:38:00,67.1,51.8,30.43,North,0,2.0,5.0,58,0.00,,,0.00,WUHU216HW,2013-10-14 17:38:00,
2013-10-14 13:43:00,66.9,51.1,30.43,NE,45,0.0,5.0,57,0.00,,,0.00,WUHU216HW,2013-10-14 17:43:00,
2013-10-14 13:48:00,66.7,51.4,30.43,NE,45,0.0,5.0,58,0.00,,,0.00,WUHU216HW,2013-10-14 17:48:00,
2013-10-14 13:53:00,66.5,50.8,30.43,NE,45,0.0,4.0,57,0.00,,,0.00,WUHU216HW,2013-10-14 17:53:00,
2013-10-14 13:58:00,66.5,51.3,30.42,NNE,23,0.0,4.0,58,0.00,,,0.00,WUHU216HW,2013-10-14 17:58:00,
2013-10-14 14:04:00,66.5,51.3,30.42,NW,315,0.0,1.0,58,0.00,,,0.00,WUHU216HW,2013-10-14 18:04:00,
2013-10-14 14:09:00,66.7,51.4,30.42,SE,135,0.0,0.0,58,0.00,,,0.00,WUHU216HW,2013-10-14 18:09:00,
2013-10-14 14:14:00,66.9,51.1,30.41,WSW,248,0.0,4.0,57,0.00,,,0.00,WUHU216HW,2013-10-14 18:14:00,
2013-10-14 14:19:00,66.9,51.1,30.41,North,0,0.0,4.0,57,0.00,,,0.00,WUHU216HW,2013-10-14 18:19:00,
2013-10-14 14:24:00,66.9,51.1,30.41,NNE,23,0.0,0.0,57,0.00,,,0.00,WUHU216HW,2013-10-14 18:24:00,
2013-10-14 14:29:00,67.1,51.3,30.41,NE,45,0.0,1.0,57,0.00,,,0.00,WUHU216HW,2013-10-14 18:29:00,
2013-10-14 14:34:00,67.2,51.4,30.41,NW,315,0.0,1.0,57,0.00,,,0.00,WUHU216HW,2013-10-14 18:34:00,
2013-10-14 14:39:00,67.2,51.0,30.41,South,180,0.0,6.0,56,0.00,,,0.00,WUHU216HW,2013-10-14 18:39:00,
2013-10-14 14:44:00,66.9,50.6,30.41,West,270,0.0,7.0,56,0.00,,,0.00,WUHU216HW,2013-10-14 18:44:00,
2013-10-14 14:50:00,66.7,50.5,30.41,NNE,23,1.0,7.0,56,0.00,,,0.00,WUHU216HW,2013-10-14 18:50:00,
2013-10-14 14:55:00,66.3,50.6,30.41,NNE,23,0.0,3.0,57,0.00,,,0.00,WUHU216HW,2013-10-14 18:55:00,
2013-10-14 15:00:00,66.2,50.5,30.41,NNE,23,0.0,2.0,57,0.00,,,0.00,WUHU216HW,2013-10-14 19:00:00,
2013-10-14 15:05:00,66.0,50.8,30.41,NNW,338,0.0,0.0,58,0.00,,,0.00,WUHU216HW,2013-10-14 19:05:00,
2013-10-14 15:10:00,66.0,50.6,30.41,NNE,23,0.0,0.0,58,0.00,,,0.00,WUHU216HW,2013-10-14 19:10:00,
2013-10-14 15:15:00,65.8,50.6,30.41,NNE,23,0.0,2.0,58,0.00,,,0.00,WUHU216HW,2013-10-14 19:15:00,
2013-10-14 15:20:00,65.4,50.2,30.41,NNE,23,0.0,2.0,58,0.00,,,0.00,WUHU216HW,2013-10-14 19:20:00,
2013-10-14 15:25:00,65.3,50.1,30.40,NNE,23,0.0,0.0,58,0.00,,,0.00,WUHU216HW,2013-10-14 19:25:00,
2013-10-14 15:30:00,65.1,50.4,30.40,North,0,0.0,0.0,59,0.00,,,0.00,WUHU216HW,2013-10-14 19:30:00,
2013-10-14 15:35:00,65.1,50.4,30.40,NNE,23,0.0,0.0,59,0.00,,,0.00,WUHU216HW,2013-10-14 19:35:00,
2013-10-14 15:40:00,65.1,50.4,30.40,ENE,68,1.0,1.0,59,0.00,,,0.00,WUHU216HW,2013-10-14 19:40:00,
2013-10-14 15:45:00,65.1,50.4,30.40,SE,135,3.0,3.0,59,0.00,,,0.00,WUHU216HW,2013-10-14 19:45:00,
2013-10-14 15:51:00,65.1,50.4,30.40,North,0,0.0,5.0,59,0.00,,,0.00,WUHU216HW,2013-10-14 19:51:00,
2013-10-14 15:56:00,65.3,51.0,30.40,ESE,113,0.0,5.0,60,0.00,,,0.00,WUHU216HW,2013-10-14 19:56:00,
2013-10-14 16:01:00,65.1,50.4,30.40,SE,135,2.0,2.0,59,0.00,,,0.00,WUHU216HW,2013-10-14 20:01:00,
2013-10-14 16:06:00,65.3,51.0,30.40,SE,135,0.0,2.0,60,0.00,,,0.00,WUHU216HW,2013-10-14 20:06:00,
2013-10-14 16:11:00,65.3,51.0,30.40,SE,135,0.0,0.0,60,0.00,,,0.00,WUHU216HW,2013-10-14 20:11:00,
2013-10-14 16:16:00,65.3,51.0,30.40,ESE,113,0.0,4.0,60,0.00,,,0.00,WUHU216HW,2013-10-14 20:16:00,
2013-10-14 16:21:00,65.3,51.0,30.40,NW,315,0.0,4.0,60,0.00,,,0.00,WUHU216HW,2013-10-14 20:21:00,
2013-10-14 16:26:00,65.3,50.9,30.40,NW,315,0.0,0.0,60,0.00,,,0.00,WUHU216HW,2013-10-14 20:26:00,
2013-10-14 16:32:00,65.1,50.9,30.39,NW,315,0.0,0.0,60,0.00,,,0.00,WUHU216HW,2013-10-14 20:32:00,
2013-10-14 16:37:00,65.1,50.9,30.40,NW,315,0.0,0.0,60,0.00,,,0.00,WUHU216HW,2013-10-14 20:37:00,
2013-10-14 16:42:00,64.9,50.7,30.39,NW,315,0.0,0.0,60,0.00,,,0.00,WUHU216HW,2013-10-14 20:42:00,
2013-10-14 16:47:00,64.9,50.7,30.40,SE,135,0.0,0.0,60,0.00,,,0.00,WUHU216HW,2013-10-14 20:47:00,
2013-10-14 16:52:00,64.7,50.5,30.40,SE,135,0.0,0.0,60,0.00,,,0.00,WUHU216HW,2013-10-14 20:52:00,
2013-10-14 16:57:00,64.5,50.3,30.40,SE,135,0.0,0.0,60,0.00,,,0.00,WUHU216HW,2013-10-14 20:57:00,
2013-10-14 17:02:00,64.5,50.3,30.40,SE,135,0.0,0.0,60,0.00,,,0.00,WUHU216HW,2013-10-14 21:02:00,
2013-10-14 17:07:00,64.2,50.4,30.40,SE,135,0.0,0.0,61,0.00,,,0.00,WUHU216HW,2013-10-14 21:07:00,
2013-10-14 17:12:00,64.0,50.2,30.40,SE,135,0.0,0.0,61,0.00,,,0.00,WUHU216HW,2013-10-14 21:12:00,
2013-10-14 17:17:00,64.0,50.2,30.40,SE,135,0.0,0.0,61,0.00,,,0.00,WUHU216HW,2013-10-14 21:17:00,
2013-10-14 17:22:00,63.6,50.3,30.40,ESE,113,0.0,0.0,62,0.00,,,0.00,WUHU216HW,2013-10-14 21:22:00,
2013-10-14 17:27:00,63.5,50.2,30.40,ESE,113,0.0,0.0,62,0.00,,,0.00,WUHU216HW,2013-10-14 21:27:00,
2013-10-14 17:32:00,63.3,50.4,30.40,ESE,113,0.0,0.0,63,0.00,,,0.00,WUHU216HW,2013-10-14 21:32:00,
2013-10-14 17:38:00,63.1,50.2,30.40,ESE,113,0.0,0.0,63,0.00,,,0.00,WUHU216HW,2013-10-14 21:38:00,
2013-10-14 17:43:00,63.1,50.7,30.41,ESE,113,0.0,0.0,64,0.00,,,0.00,WUHU216HW,2013-10-14 21:43:00,
2013-10-14 17:48:00,62.7,49.9,30.41,ESE,113,0.0,0.0,63,0.00,,,0.00,WUHU216HW,2013-10-14 21:48:00,
2013-10-14 17:53:00,62.6,50.2,30.41,ESE,113,0.0,0.0,64,0.00,,,0.00,WUHU216HW,2013-10-14 21:53:00,
2013-10-14 17:58:00,62.4,50.0,30.41,ESE,113,0.0,0.0,64,0.00,,,0.00,WUHU216HW,2013-10-14 21:58:00,
2013-10-14 18:03:00,62.2,49.8,30.41,ESE,113,0.0,0.0,64,0.00,,,0.00,WUHU216HW,2013-10-14 22:03:00,
2013-10-14 18:08:00,61.8,49.9,30.41,ESE,113,0.0,0.0,65,0.00,,,0.00,WUHU216HW,2013-10-14 22:08:00,
2013-10-14 18:14:00,61.7,50.2,30.42,ESE,113,0.0,0.0,66,0.00,,,0.00,WUHU216HW,2013-10-14 22:14:00,
2013-10-14 18:20:00,61.5,50.0,30.42,ESE,113,0.0,0.0,66,0.00,,,0.00,WUHU216HW,2013-10-14 22:20:00,
2013-10-14 18:26:00,61.1,50.1,30.42,ESE,113,0.0,0.0,67,0.00,,,0.00,WUHU216HW,2013-10-14 22:26:00,
2013-10-14 18:32:00,60.9,50.0,30.42,ESE,113,0.0,0.0,67,0.00,,,0.00,WUHU216HW,2013-10-14 22:32:00,
2013-10-14 18:37:00,60.6,49.6,30.42,ESE,113,0.0,0.0,67,0.00,,,0.00,WUHU216HW,2013-10-14 22:37:00,
2013-10-14 18:42:00,60.6,49.6,30.42,ESE,113,0.0,0.0,67,0.00,,,0.00,WUHU216HW,2013-10-14 22:42:00,
2013-10-14 18:48:00,60.4,49.8,30.43,ESE,113,0.0,0.0,68,0.00,,,0.00,WUHU216HW,2013-10-14 22:48:00,
2013-10-14 18:53:00,60.0,49.5,30.43,ESE,113,0.0,0.0,68,0.00,,,0.00,WUHU216HW,2013-10-14 22:53:00,
2013-10-14 18:58:00,60.0,49.5,30.43,ESE,113,0.0,0.0,68,0.00,,,0.00,WUHU216HW,2013-10-14 22:58:00,
2013-10-14 19:03:00,59.9,49.7,30.43,ESE,113,0.0,0.0,69,0.00,,,0.00,WUHU216HW,2013-10-14 23:03:00,
2013-10-14 19:08:00,59.7,49.5,30.43,ESE,113,0.0,0.0,69,0.00,,,0.00,WUHU216HW,2013-10-14 23:08:00,
2013-10-14 19:13:00,59.7,49.5,30.43,ESE,113,0.0,0.0,69,0.00,,,0.00,WUHU216HW,2013-10-14 23:13:00,
2013-10-14 19:18:00,59.5,49.4,30.43,ESE,113,0.0,0.0,69,0.00,,,0.00,WUHU216HW,2013-10-14 23:18:00,
2013-10-14 19:23:00,59.3,49.6,30.44,ESE,113,0.0,0.0,70,0.00,,,0.00,WUHU216HW,2013-10-14 23:23:00,
2013-10-14 19:28:00,59.1,49.4,30.44,ESE,113,0.0,0.0,70,0.00,,,0.00,WUHU216HW,2013-10-14 23:28:00,
2013-10-14 19:33:00,58.8,49.1,30.44,ESE,113,0.0,0.0,70,0.00,,,0.00,WUHU216HW,2013-10-14 23:33:00,
2013-10-14 19:38:00,58.8,49.4,30.44,ESE,113,0.0,0.0,71,0.00,,,0.00,WUHU216HW,2013-10-14 23:38:00,
2013-10-14 19:43:00,58.8,49.4,30.44,ESE,113,0.0,0.0,71,0.00,,,0.00,WUHU216HW,2013-10-14 23:43:00,
2013-10-14 19:49:00,58.8,49.4,30.44,ESE,113,0.0,0.0,71,0.00,,,0.00,WUHU216HW,2013-10-14 23:49:00,
2013-10-14 19:54:00,58.8,49.4,30.44,ESE,113,0.0,0.0,71,0.00,,,0.00,WUHU216HW,2013-10-14 23:54:00,
2013-10-14 19:59:00,58.6,49.6,30.44,ESE,113,0.0,0.0,72,0.00,,,0.00,WUHU216HW,2013-10-14 23:59:00,
2013-10-14 20:04:00,58.4,49.4,30.44,ESE,113,0.0,0.0,72,0.00,,,0.00,WUHU216HW,2013-10-15 00:04:00,
2013-10-14 20:09:00,58.1,49.1,30.44,ESE,113,0.0,0.0,72,0.00,,,0.00,WUHU216HW,2013-10-15 00:09:00,
2013-10-14 20:14:00,57.7,48.7,30.44,ESE,113,0.0,0.0,72,0.00,,,0.00,WUHU216HW,2013-10-15 00:14:00,
2013-10-14 20:19:00,57.3,48.7,30.44,ESE,113,0.0,0.0,73,0.00,,,0.00,WUHU216HW,2013-10-15 00:19:00,
2013-10-14 20:24:00,57.0,48.3,30.44,ESE,113,0.0,0.0,73,0.00,,,0.00,WUHU216HW,2013-10-15 00:24:00,
2013-10-14 20:29:00,57.0,48.3,30.44,ESE,113,0.0,0.0,73,0.00,,,0.00,WUHU216HW,2013-10-15 00:29:00,
2013-10-14 20:35:00,56.8,48.2,30.44,ESE,113,0.0,0.0,73,0.00,,,0.00,WUHU216HW,2013-10-15 00:35:00,
2013-10-14 20:40:00,56.4,47.8,30.45,ESE,113,0.0,0.0,73,0.00,,,0.00,WUHU216HW,2013-10-15 00:40:00,
2013-10-14 20:45:00,56.4,48.2,30.45,ESE,113,0.0,0.0,74,0.00,,,0.00,WUHU216HW,2013-10-15 00:45:00,
2013-10-14 20:50:00,56.3,48.4,30.45,ESE,113,0.0,0.0,75,0.00,,,0.00,WUHU216HW,2013-10-15 00:50:00,
2013-10-14 20:55:00,56.3,48.4,30.45,ESE,113,0.0,0.0,75,0.00,,,0.00,WUHU216HW,2013-10-15 00:55:00,
2013-10-14 21:00:00,56.1,48.2,30.45,ESE,113,0.0,0.0,75,0.00,,,0.00,WUHU216HW,2013-10-15 01:00:00,
2013-10-14 21:05:00,56.1,48.2,30.44,ESE,113,0.0,0.0,75,0.00,,,0.00,WUHU216HW,2013-10-15 01:05:00,
2013-10-14 21:10:00,56.1,48.2,30.44,ESE,113,0.0,0.0,75,0.00,,,0.00,WUHU216HW,2013-10-15 01:10:00,
2013-10-14 21:15:00,55.9,48.0,30.45,ESE,113,0.0,0.0,75,0.00,,,0.00,WUHU216HW,2013-10-15 01:15:00,
2013-10-14 21:20:00,55.7,47.9,30.45,ESE,113,0.0,0.0,75,0.00,,,0.00,WUHU216HW,2013-10-15 01:20:00,
2013-10-14 21:26:00,55.5,47.7,30.45,ESE,113,0.0,0.0,75,0.00,,,0.00,WUHU216HW,2013-10-15 01:26:00,
2013-10-14 21:30:00,55.5,47.7,30.45,ESE,113,0.0,0.0,75,0.00,,,0.00,WUHU216HW,2013-10-15 01:30:00,
2013-10-14 21:36:00,55.5,48.0,30.45,ESE,113,0.0,0.0,76,0.00,,,0.00,WUHU216HW,2013-10-15 01:36:00,
2013-10-14 21:41:00,55.5,48.0,30.45,ESE,113,0.0,0.0,76,0.00,,,0.00,WUHU216HW,2013-10-15 01:41:00,
2013-10-14 21:46:00,55.5,48.0,30.44,ESE,113,0.0,0.0,76,0.00,,,0.00,WUHU216HW,2013-10-15 01:46:00,
2013-10-14 21:51:00,55.5,48.0,30.45,ESE,113,0.0,0.0,76,0.00,,,0.00,WUHU216HW,2013-10-15 01:51:00,
2013-10-14 21:56:00,55.5,48.0,30.45,ESE,113,0.0,0.0,76,0.00,,,0.00,WUHU216HW,2013-10-15 01:56:00,
2013-10-14 22:01:00,55.5,48.4,30.45,ESE,113,0.0,0.0,77,0.00,,,0.00,WUHU216HW,2013-10-15 02:01:00,
2013-10-14 22:06:00,55.5,48.4,30.45,ESE,113,0.0,0.0,77,0.00,,,0.00,WUHU216HW,2013-10-15 02:06:00,
2013-10-14 22:11:00,55.5,48.4,30.45,ESE,113,0.0,0.0,77,0.00,,,0.00,WUHU216HW,2013-10-15 02:11:00,
2013-10-14 22:16:00,55.5,48.4,30.45,ESE,113,0.0,0.0,77,0.00,,,0.00,WUHU216HW,2013-10-15 02:16:00,
2013-10-14 22:21:00,55.5,48.4,30.45,ESE,113,0.0,0.0,77,0.00,,,0.00,WUHU216HW,2013-10-15 02:21:00,
2013-10-14 22:26:00,55.4,48.2,30.46,ESE,113,0.0,0.0,77,0.00,,,0.00,WUHU216HW,2013-10-15 02:26:00,
2013-10-14 22:31:00,55.2,48.2,30.45,ESE,113,0.0,0.0,77,0.00,,,0.00,WUHU216HW,2013-10-15 02:31:00,
2013-10-14 22:36:00,55.2,48.0,30.45,ESE,113,0.0,0.0,77,0.00,,,0.00,WUHU216HW,2013-10-15 02:36:00,
2013-10-14 22:41:00,55.4,48.5,30.46,ESE,113,0.0,0.0,78,0.00,,,0.00,WUHU216HW,2013-10-15 02:41:00,
2013-10-14 22:46:00,55.4,48.5,30.46,ESE,113,0.0,0.0,78,0.00,,,0.00,WUHU216HW,2013-10-15 02:46:00,
2013-10-14 22:52:00,55.4,48.5,30.46,ESE,113,0.0,0.0,78,0.00,,,0.00,WUHU216HW,2013-10-15 02:52:00,
2013-10-14 22:57:00,55.4,48.5,30.46,ESE,113,0.0,0.0,78,0.00,,,0.00,WUHU216HW,2013-10-15 02:57:00,
2013-10-14 23:02:00,55.4,48.5,30.46,ESE,113,0.0,0.0,78,0.00,,,0.00,WUHU216HW,2013-10-15 03:02:00,
2013-10-14 23:07:00,55.4,48.5,30.46,ESE,113,0.0,0.0,78,0.00,,,0.00,WUHU216HW,2013-10-15 03:07:00,
2013-10-14 23:12:00,55.4,48.9,30.46,ESE,113,0.0,0.0,79,0.00,,,0.00,WUHU216HW,2013-10-15 03:12:00,
2013-10-14 23:17:00,55.4,48.9,30.46,ESE,113,0.0,0.0,79,0.00,,,0.00,WUHU216HW,2013-10-15 03:17:00,
2013-10-14 23:22:00,55.4,48.9,30.46,ESE,113,0.0,0.0,79,0.00,,,0.00,WUHU216HW,2013-10-15 03:22:00,
2013-10-14 23:27:00,55.5,49.1,30.45,ESE,113,0.0,0.0,79,0.00,,,0.00,WUHU216HW,2013-10-15 03:27:00,
2013-10-14 23:32:00,55.5,49.1,30.45,ESE,113,0.0,0.0,79,0.00,,,0.00,WUHU216HW,2013-10-15 03:32:00,
2013-10-14 23:37:00,55.5,49.1,30.45,ESE,113,0.0,0.0,79,0.00,,,0.00,WUHU216HW,2013-10-15 03:37:00,
2013-10-14 23:42:00,55.5,49.1,30.45,ESE,113,0.0,0.0,79,0.00,,,0.00,WUHU216HW,2013-10-15 03:42:00,
2013-10-14 23:48:00,55.5,49.2,30.45,ESE,113,0.0,0.0,79,0.00,,,0.00,WUHU216HW,2013-10-15 03:48:00,
2013-10-14 23:53:00,55.5,49.6,30.44,ESE,113,0.0,0.0,80,0.00,,,0.00,WUHU216HW,2013-10-15 03:53:00,
2013-10-14 23:58:00,55.5,49.1,30.44,ESE,113,0.0,0.0,79,0.00,,,0.00,WUHU216HW,2013-10-15 03:58:00,